Tracking 19720 objects as of 26-Jun-2019
HD Live streaming from Space Station
objects crossing your sky now

OPS 2222

Track OPS 2222 now!
OPS 2222 is classified as:


NORAD ID: 3334
Int'l Code: 1968-063A
Perigee: 32,019.3 km
Apogee: 40,147.9 km
Inclination: 12.1 °
Period: 1,450.9 minutes
Semi major axis: 42454 km
RCS: Unknown
Launch date: August 6, 1968
Source: United States (US)
Launch site: AIR FORCE EASTERN TEST RANGE (AFETR)
aabbcc
Your satellite tracking list
Your tracking list is empty




NASA's NSSDC Master Catalog

Two Line Element Set (TLE):
1  3334U 68063A   19175.42736730 -.00000054  00000-0  00000+0 0  9990
2  3334  12.1435 313.6066 0957330 158.9843 205.3149  0.99246672   819
Source of the keplerian elements: McCants